Temp
15 16 15 15 15 15 15 15 14 14 14 14 14 14 13 13 14 14 14 14 14 13 13 13 13 12 12 12 11 11 11 11 11 11 10 10 10 10 10 9 10 10 10
15 15 15 15 15 15 14 14 15 15 14 14 14 13 13 14 13 13 14 14 13 13 13 13 13 12 12 12 11 11 11 11 11 11 10 10 10 9 10 10 10 10 10
15 16 15 15 14 15 14 14 14 15 14 14 14 13 14 13 13 13 13 14 13 13 13 13 12 12 12 12 11 11 11 11 10 10 10 10 9 9 10 10 10 10 9
14 14 14 14 14 14 14 14 14 14 14 14 14 14 13 13 13 13 13 13 13 13 12 13 12 12 12 12 11 11 11 10 10 10 10 10 9 9 9 9 9 9 9
14 14 14 14 14 14 14 13 14 14 14 14 14 13 13 13 12 13 13 13 13 13 13 12 12 12 12 11 11 11 11 11 10 10 10 10 10 10 9 9 9 9 9
14 14 14 14 14 13 13 13 14 14 14 14 14 13 13 13 12 13 13 13 12 12 12 12 12 12 12 11 11 11 12 11 11 11 11 11 10 10 10 10 10 10 9
14 14 14 14 13 13 13 13 13 13 13 14 13 12 12 12 12 12 13 13 12 12 12 12 12 12 12 12 12 11 12 12 12 12 12 12 12 11 11 11 11 11 10
14 14 14 13 13 13 12 13 14 14 14 13 15 15 14 13 12 12 12 12 12 12 12 12 12 12 12 12 12 13 13 12 12 12 12 12 12 12 12 12 12 11 11
13 13 14 13 12 12 12 13 13 14 14 13 14 17 15 16 14 12 12 12 12 12 12 12 13 13 12 12 13 14 14 14 14 13 13 13 13 13 12 12 12 12 12
13 13 13 13 12 12 12 13 13 14 13 13 13 14 16 15 17 14 12 12 12 12 13 13 14 14 12 13 14 14 14 15 14 14 14 13 13 13 13 13 13 12 12
12 13 13 13 12 12 13 13 13 14 14 14 14 14 14 14 15 16 16 14 12 13 13 13 13 14 14 14 14 15 15 15 14 14 14 13 13 13 12 12 12 11 11
13 13 13 13 13 12 13 13 13 13 14 14 15 15 15 16 16 16 16 16 16 14 13 14 14 15 15 14 15 15 15 14 13 12 13 12 12 11 11 10 10 10 10
13 13 13 13 13 13 13 13 13 13 14 14 14 14 15 16 16 15 15 13 14 13 13 15 15 15 14 14 14 13 13 14 14 13 13 12 12 11 11 10 10 9 9
14 13 13 13 13 13 13 13 13 13 13 14 14 14 16 16 17 16 15 14 13 14 13 14 15 15 14 13 14 14 13 13 13 12 12 11 11 10 9 9 8 8 8
14 14 13 13 13 13 13 13 12 12 13 13 14 14 15 15 15 15 15 14 13 12 13 13 14 13 13 13 13 12 10 8 9 8 8 8 7 6 5 6 5 5 5
14 14 14 13 13 13 13 12 12 12 13 13 13 13 14 14 13 14 13 13 12 12 11 13 12 12 11 11 9 8 7 5 3 3 3 3 3 3 2 2 2 2 1
13 13 13 14 13 13 12 12 12 12 12 12 13 14 13 13 12 12 11 11 11 12 11 12 11 9 8 7 5 4 3 3 2 1 1 0 -0 1 0 0 0 -0 -0
13 13 13 13 13 13 12 12 11 11 12 11 13 13 12 12 12 11 10 10 11 11 11 11 10 6 4 3 2 2 2 -0 0 -0 0 -0 -2 -0 -0 -1 -2 -2 -2
12 13 13 13 13 13 13 12 12 11 11 11 11 11 11 11 11 11 11 11 11 11 11 10 6 3 1 0 0 -0 -0 -1 -2 -2 -2 -2 -2 -3 -2 -3 -3 -2 -2
12 12 12 12 12 12 12 12 12 11 11 11 11 11 11 11 11 11 11 11 10 10 9 7 3 -0 -1 -2 -2 -3 -3 -3 -3 -3 -3 -3 -4 -5 -4 -3 -4 -5 -6
12 12 12 12 12 12 12 12 12 11 11 11 11 10 10 10 11 10 10 8 8 7 5 3 -1 -3 -4 -5 -6 -6 -5 -4 -5 -5 -5 -5 -5 -6 -6 -6 -6 -6 -7
12 11 11 11 11 11 11 11 11 12 9 8 7 6 6 6 6 6 6 5 4 3 1 -3 -5 -6 -7 -7 -7 -7 -7 -6 -4 -6 -7 -5 -7 -6 -7 -7 -6 -7 -8
11 11 11 11 11 11 11 10 10 8 8 6 6 3 2 0 2 2 1 1 -0 -0 -1 -2 -6 -8 -9 -9 -8 -8 -8 -6 -5 -7 -8 -6 -7 -7 -7 -7 -8 -8 -8
11 10 9 9 9 7 10 10 9 6 3 1 0 -0 -1 -2 -2 -1 -1 -3 -5 -5 -4 -5 -6 -8 -8 -8 -9 -9 -9 -8 -7 -8 -10 -8 -8 -8 -8 -8 -8 -8 -9
7 7 6 7 6 3 4 8 8 2 -1 -2 -2 -2 -2 -3 -4 -3 -3 -7 -9 -9 -9 -10 -10 -11 -8 -7 -8 -10 -9 -9 -8 -8 -11 -10 -9 -9 -9 -9 -8 -9 -10
4 3 2 2 2 1 1 2 5 1 -3 -4 -5 -5 -5 -4 -5 -4 -5 -7 -9 -10 -10 -10 -10 -11 -12 -12 -12 -12 -12 -11 -11 -9 -10 -12 -10 -10 -10 -10 -9 -9 -9
Height
785 786 792 795 798 802 807 811 817 825 831 834 838 842 845 848 850 854 857 860 862 864 865 869 871 873 874 877 878 881 883 885 885 885 886 887 887 888 889 889 888 889 889
780 784 787 792 795 799 806 809 812 822 830 834 838 842 845 848 852 854 857 860 861 863 867 870 872 874 875 877 879 881 882 884 885 884 886 887 888 888 889 888 888 889 890
774 777 781 786 792 795 802 809 813 821 828 833 838 842 845 848 853 855 857 859 862 865 868 870 872 874 875 877 879 880 881 884 886 885 886 886 887 887 887 887 887 887 889
769 774 778 782 785 791 798 805 810 819 826 832 836 841 845 848 853 855 857 859 862 866 868 870 871 873 874 877 879 879 880 883 884 884 885 885 885 886 886 886 886 886 887
763 768 772 775 779 786 793 801 808 815 823 830 836 839 845 847 853 854 857 859 861 865 867 869 870 871 874 876 877 878 879 881 882 883 882 883 883 885 885 885 885 885 886
759 762 766 765 773 782 791 798 805 813 819 827 834 840 845 847 852 855 857 858 861 864 866 868 870 872 873 874 875 876 878 880 880 881 882 882 882 882 882 883 883 883 883
753 754 750 759 767 775 784 793 801 808 818 825 832 841 844 847 851 853 855 857 859 862 864 866 866 870 872 873 874 875 876 878 878 879 879 879 879 879 879 879 879 879 879
745 745 747 748 760 771 780 787 794 804 814 820 825 834 841 849 850 851 852 855 856 859 861 863 864 866 870 871 870 871 872 873 874 875 876 876 876 875 875 875 875 874 875
737 738 740 747 754 763 775 782 790 797 805 816 820 822 832 834 843 847 849 852 854 856 858 859 861 863 865 867 867 867 868 869 869 869 870 871 871 871 871 870 870 869 868
732 733 739 741 751 760 770 777 785 793 798 807 816 819 822 826 831 841 845 847 850 851 853 855 857 859 861 862 863 863 864 864 865 865 866 865 866 866 865 865 864 863 862
733 735 738 743 748 757 764 773 783 791 795 801 808 814 819 823 826 829 832 841 845 845 848 850 853 855 857 857 859 858 859 859 859 860 860 861 861 860 859 858 857 856 856
733 736 739 741 748 755 762 771 779 786 791 798 803 809 811 816 820 823 828 833 837 840 843 846 847 851 852 853 855 855 853 853 853 853 853 852 852 852 851 851 850 849 849
730 733 737 741 746 752 762 769 775 782 787 792 797 803 808 812 815 819 823 829 835 837 839 841 844 846 848 849 850 850 848 848 847 846 846 845 844 843 843 843 841 841 840
726 730 734 740 745 751 758 765 772 778 783 788 794 800 804 808 812 815 818 824 831 836 836 837 839 842 845 845 844 845 845 843 842 841 840 839 838 837 837 837 836 835 832
724 727 731 736 741 746 752 759 767 772 778 783 789 795 801 806 810 812 815 821 824 834 835 833 836 838 841 841 840 841 841 839 838 837 835 834 834 834 834 830 830 830 829
722 725 728 730 736 742 746 754 760 766 771 777 782 789 796 801 807 810 814 819 823 828 832 832 833 835 836 837 836 837 837 837 837 836 835 832 831 830 831 831 828 826 827
719 722 724 725 727 729 740 745 752 759 765 769 777 783 791 798 804 809 814 816 820 823 827 829 831 832 833 834 834 836 836 835 835 834 834 833 832 831 830 830 828 826 824
715 717 719 721 720 722 728 732 741 749 758 763 768 778 785 793 799 804 809 811 813 817 821 823 825 827 830 831 833 834 834 835 834 833 834 831 834 832 830 829 825 825 821
712 713 714 715 715 715 721 727 731 741 748 755 762 770 779 787 793 797 800 805 809 812 814 817 819 825 829 831 832 833 833 834 835 832 836 834 830 831 827 826 824 822 818
710 712 713 714 714 713 716 723 730 732 740 749 759 766 774 780 786 790 795 799 802 806 809 812 816 821 827 830 832 834 834 835 834 833 835 832 829 829 826 823 822 819 815
711 713 714 715 715 716 718 724 730 733 737 746 756 763 770 775 781 786 791 795 799 803 807 810 815 822 829 831 834 835 834 834 833 833 832 831 829 828 825 822 818 814 813
710 713 716 717 719 720 722 724 728 733 740 747 752 760 769 776 780 785 789 793 798 802 807 813 821 827 833 837 838 836 834 835 837 836 833 831 829 828 824 820 817 813 811
709 713 716 718 721 724 727 730 731 736 744 750 754 764 771 779 783 786 791 795 800 805 810 815 821 830 833 835 838 837 838 838 838 836 834 831 830 827 823 818 814 812 809
708 713 716 720 722 727 729 732 736 741 748 757 764 770 775 782 789 790 793 799 806 812 816 820 824 829 832 835 835 837 840 839 839 838 836 834 832 825 820 815 811 810 805
708 713 718 721 725 731 735 734 737 746 755 765 771 777 780 788 793 795 796 803 812 821 827 827 827 830 832 834 834 835 838 839 840 837 835 835 830 824 818 813 811 808 801
708 714 719 724 729 733 739 741 741 748 758 768 778 784 789 791 799 801 802 809 814 825 827 829 831 832 834 835 835 836 839 839 839 836 834 835 828 825 814 810 807 802 797
Wind_Speed
31 36 31 32 31 28 27 33 30 27 21 22 21 19 18 16 19 17 18 19 17 16 15 15 15 15 15 14 13 12 11 10 10 10 10 9 9 8 8 7 5 5 5
40 36 37 31 34 34 27 34 38 33 20 19 20 19 16 16 19 19 17 18 17 17 15 15 15 14 14 13 12 12 11 10 10 10 9 8 7 7 7 6 6 5 4
42 40 39 39 34 40 33 33 32 33 20 19 20 18 17 18 17 18 16 15 15 17 16 16 14 14 12 12 11 11 9 9 9 8 8 8 8 7 7 7 7 6 6
41 38 35 34 38 40 39 39 32 27 21 21 20 18 17 17 16 17 15 16 15 15 15 15 15 13 13 12 11 10 9 10 9 9 9 9 9 9 9 9 8 9 9
38 39 38 36 41 42 40 35 31 30 24 22 20 17 16 16 15 15 16 15 15 15 14 16 15 14 13 13 11 10 10 11 10 11 10 10 9 10 11 11 12 12 14
39 43 39 40 42 38 34 34 32 26 26 24 19 16 14 13 14 15 15 14 14 14 13 14 13 12 14 14 13 11 11 11 11 11 12 12 12 12 13 13 16 16 17
37 40 35 43 43 42 40 36 34 30 23 23 20 13 10 9 12 13 13 14 15 14 14 14 12 11 12 14 13 13 12 12 13 14 14 14 14 16 17 18 18 20 20
35 35 39 45 45 41 36 39 37 30 24 26 17 19 6 5 11 12 13 15 15 15 15 15 13 13 14 13 14 13 14 15 15 16 17 18 19 21 24 24 24 25 26
26 29 34 42 43 43 41 40 36 33 25 26 24 11 5 5 12 11 16 14 14 14 14 16 16 17 17 15 15 15 16 17 17 19 20 20 22 23 24 26 28 28 29
25 33 37 43 42 40 38 38 36 36 33 29 23 9 13 12 6 5 11 16 15 16 19 18 18 20 19 18 18 18 19 19 22 23 25 26 27 27 27 29 31 31 32
29 34 39 41 41 37 39 39 34 33 31 30 27 18 11 9 10 4 6 12 15 18 20 21 17 19 21 18 16 17 20 22 23 24 26 27 28 29 29 30 30 30 31
27 30 30 34 40 36 38 38 38 36 34 32 30 23 21 13 13 6 3 12 14 11 17 20 19 21 19 15 11 15 21 25 23 22 21 22 23 23 23 23 23 22 23
24 29 30 29 29 33 36 36 36 36 36 34 33 27 22 18 15 10 8 5 4 4 6 13 16 15 16 6 12 19 23 26 23 22 22 21 20 20 21 21 20 21 19
26 30 34 33 34 32 32 37 35 35 35 34 33 30 30 25 20 20 12 10 3 5 4 5 8 7 5 10 17 20 23 26 24 23 22 21 20 19 18 18 19 21 22
25 23 34 33 34 37 35 35 34 34 35 35 36 32 30 24 22 20 14 14 10 3 3 1 3 2 5 12 14 17 14 14 19 16 13 10 7 4 4 6 7 9 11
21 26 30 30 36 37 38 38 34 34 37 35 35 33 32 26 21 18 18 12 8 7 2 5 1 8 9 8 8 8 4 3 6 6 6 4 5 7 8 9 10 11 13
17 19 25 29 35 44 42 40 36 34 36 35 36 36 32 27 25 22 21 22 18 15 10 8 9 7 7 7 7 7 6 3 4 8 10 13 12 11 12 12 13 13 14
17 20 24 30 35 33 43 45 40 39 39 36 40 36 33 32 34 35 30 26 26 26 19 14 9 7 7 7 6 5 6 5 4 6 8 11 12 14 12 12 14 16 17
10 12 18 22 23 34 37 41 43 42 41 38 39 38 36 35 33 31 30 26 26 25 22 18 7 7 6 5 4 4 6 7 3 4 9 13 11 10 12 15 18 20 21
9 11 12 17 15 22 27 32 34 40 37 35 33 34 32 35 31 31 29 29 23 19 15 13 9 9 7 5 6 8 9 9 3 5 12 17 14 13 16 20 21 20 18
9 9 10 11 14 17 26 26 28 31 34 35 33 31 26 26 27 25 23 17 16 14 12 11 11 11 10 9 8 9 9 9 3 9 15 13 11 13 14 19 19 19 17
10 11 13 13 15 14 22 28 35 33 35 35 32 25 19 17 17 17 17 16 14 15 16 18 19 19 15 10 11 13 13 8 3 11 17 13 11 17 17 20 21 18 17
14 14 14 15 14 15 16 25 35 36 32 29 29 28 26 25 23 24 25 26 25 22 21 21 24 14 14 12 9 12 11 8 6 10 16 9 14 17 20 19 19 17 18
20 18 18 17 18 20 21 25 29 31 33 30 29 29 30 29 28 32 34 34 32 30 27 27 26 22 17 13 12 10 9 9 4 5 15 7 17 19 21 19 17 19 25
25 23 21 21 22 24 27 31 32 35 35 32 30 29 30 31 29 29 34 39 36 33 27 27 27 24 20 19 16 11 13 13 6 7 12 16 15 23 16 12 13 20 29
29 27 26 23 24 27 27 31 35 39 41 39 35 33 30 33 28 28 31 32 30 20 19 18 19 19 18 17 18 16 12 11 9 5 13 16 17 21 10 7 22 26 28
Wind_Direction
200 199 192 189 185 178 180 177 172 176 176 177 177 177 174 170 165 161 157 162 161 149 149 155 156 154 154 157 153 154 154 155 151 149 154 159 159 155 163 161 156 160 158
203 202 196 192 185 187 186 179 177 183 177 177 176 179 176 168 169 166 160 165 165 155 163 164 160 162 160 161 161 165 162 170 173 166 175 177 175 185 198 192 193 202 211
207 207 200 194 189 192 186 176 172 182 174 177 176 179 174 171 177 172 167 161 167 169 171 170 167 167 165 168 175 172 173 185 191 189 195 196 202 212 230 226 225 232 240
211 205 196 192 190 186 186 179 171 174 175 177 174 176 173 169 182 177 172 168 169 176 179 178 177 176 176 180 187 184 188 202 206 210 214 217 224 231 239 247 253 254 255
207 201 198 190 192 186 181 175 172 174 175 178 177 169 179 172 188 179 182 179 179 180 180 189 188 186 191 191 194 193 206 215 220 224 227 234 241 244 253 260 263 264 260
214 210 203 185 188 177 172 175 172 172 173 172 167 168 174 172 191 190 185 184 189 190 187 187 193 202 207 207 205 207 217 225 232 239 243 245 251 260 269 273 274 274 265
224 220 193 188 185 182 176 175 167 162 164 162 149 152 157 175 202 193 188 194 196 198 200 201 192 204 219 224 224 221 224 235 241 246 253 263 268 269 275 276 279 279 277
242 226 200 177 184 183 178 173 173 165 166 169 170 162 154 182 214 206 201 205 201 201 205 208 208 216 223 224 230 238 240 239 245 251 257 264 270 274 277 281 283 284 287
231 216 198 178 174 177 178 177 173 171 165 178 175 169 156 187 169 202 213 213 210 210 213 219 221 228 231 235 243 249 254 259 262 262 263 263 264 266 271 277 280 285 285
201 191 175 175 175 178 176 177 177 178 169 174 182 179 177 152 184 167 207 214 215 218 224 227 232 239 239 243 254 263 272 276 275 275 275 276 278 279 279 279 281 283 281
175 175 182 184 179 178 179 178 179 183 183 175 179 178 161 166 169 157 176 191 213 222 227 226 232 243 250 251 268 292 301 292 288 284 283 284 285 286 287 287 286 286 284
192 182 183 186 189 182 181 182 185 185 184 185 184 186 180 177 177 162 144 186 207 209 219 229 233 244 248 249 282 315 321 321 313 304 296 287 285 286 283 279 278 279 279
187 197 196 190 193 193 193 184 186 188 188 185 187 188 188 186 182 168 150 139 148 177 180 212 229 236 236 261 321 322 313 309 300 294 293 291 287 284 281 280 278 276 275
195 199 201 202 202 199 201 198 191 192 191 191 192 195 196 201 197 181 158 155 109 192 198 201 207 250 238 296 288 293 290 290 293 291 289 288 287 286 284 283 283 278 274
212 190 205 204 202 205 205 202 193 192 192 193 193 196 199 194 188 170 166 173 149 172 217 225 166 330 241 291 283 275 274 282 282 283 285 288 289 309 309 285 293 309 307
215 208 215 201 206 208 201 199 196 194 190 190 191 189 192 180 172 178 177 186 206 185 192 213 203 250 275 256 238 230 200 138 82 64 50 43 25 12 5 357 348 343 344
224 222 226 215 203 204 205 196 193 191 190 182 186 191 190 198 204 200 211 217 226 218 214 236 234 213 180 190 164 159 134 110 51 32 38 36 34 26 14 357 349 341 337
237 240 238 238 224 205 195 192 186 189 188 185 188 199 208 220 224 220 220 227 227 224 220 237 207 185 154 150 149 127 96 85 51 24 26 33 16 5 360 352 348 342 337
236 245 251 244 230 212 195 191 191 189 187 191 191 194 202 209 211 206 221 218 219 226 231 226 180 166 134 128 117 85 54 88 48 35 6 10 8 359 357 357 351 342 337
221 218 233 230 208 187 181 190 191 183 183 185 190 192 201 204 201 206 210 215 216 212 208 190 146 130 128 74 68 41 30 26 25 20 1 360 6 5 359 358 353 347 346
194 198 193 198 206 185 183 187 181 162 156 161 166 167 171 181 196 204 197 186 193 189 173 147 113 93 69 62 50 22 20 14 6 15 360 6 2 355 351 351 346 342 342
184 178 168 157 148 145 160 168 161 159 154 146 135 132 138 154 159 166 168 164 163 151 132 106 88 85 71 62 41 37 30 22 18 358 357 354 1 349 346 344 340 337 336
170 157 144 148 144 146 152 161 151 143 141 134 131 132 124 122 128 129 124 117 106 106 109 113 104 94 79 60 43 37 29 20 9 358 358 340 346 342 336 333 328 329 326
153 143 136 131 129 136 166 163 150 136 129 126 129 129 128 125 124 123 117 106 98 93 95 98 96 91 84 70 60 48 18 2 26 22 16 329 337 333 330 327 326 323 324
140 136 132 128 127 128 142 151 144 130 121 115 120 122 123 120 119 120 117 105 97 92 90 90 90 87 81 74 67 63 36 26 10 12 17 346 337 329 325 322 317 315 315
135 131 121 121 128 130 134 137 143 132 116 111 110 109 116 116 115 115 113 113 105 110 108 98 88 78 69 61 59 55 48 43 23 357 6 346 340 348 330 315 317 315 312